Regional Weather Roundup
Issued by NWS State College, PA

Home | Current Version | Previous Version | Text Only | Print | Product List | Glossary Off
Versions: 1 2 3 4 5 6 7 8 9 10 11 12 13 14 15 16 17 18 19 20 21 22 23 24 25 26 27 28 29 30 31 32 33 34 35 36 37 38 39 40 41 42 43 44 45 46 47 48 49 50

000
ASUS41 KCTP 270210
RWRCTP

REGIONAL WEATHER ROUNDUP
NATIONAL WEATHER SERVICE STATE COLLEGE PA
900 PM EST MON JAN 26 2015

Note: "fair" indicates few or no clouds below 12,000 feet with no
significant weather and/or obstructions to visibility.

* = STATION THAT DOES NOT REPORT PRECIPITATION /E.G. RAIN...SNOW...ETC/
    THUNDER OR FOG.

PAZ002>004-007>009-013>016-020>023-029>032-270300-
WESTERN PENNSYLVANIA

CITY           SKY/WX    TMP DP  RH WIND       PRES   REMARKS
ERIE           CLOUDY    21  16  81 NE10      29.89R WCI  10
MEADVILLE      CLOUDY    18  14  84 N5        29.82R WCI  11
FRANKLIN*      CLOUDY    18  12  79 NW6       29.81R WCI   9
NEW CASTLE     CLOUDY    19  15  84 NW6       29.87R WCI  11
BEAVER COUNTY  CLOUDY    19  18  93 NW5       29.84R WCI  13
BUTLER*        CLOUDY    19  18  93 W7        29.84R WCI  10
PITTSBURGH INT CLOUDY    22  18  85 NW9       29.83R WCI  12
PITTSBURGH     FLURRIES  22  17  81 NW10      29.81R WCI  11
INDIANA*       CLOUDY    21  19  93 VRB3      29.82R FOG
LATROBE        LGT SNOW  25  25 100 N6        29.82R
WASHINGTON CO* CLOUDY    23  18  80 CALM      29.84S
$$

PAZ004>006-010>012-017>019-024>028-033>037-041-042-045-046-049>053-270300-
CENTRAL PENNSYLVANIA

CITY           SKY/WX    TMP DP  RH WIND       PRES   REMARKS
BRADFORD       LGT SNOW  15  10  80 NE3       29.76S
DUBOIS         LGT SNOW  19  16  88 NE7       29.75F FOG     WCI  10
CLEARFIELD     LGT SNOW  20  18  92 NE3       29.78S FOG
JOHNSTOWN      LGT SNOW  19  15  84 CALM      29.70S FOG
ALTOONA        LGT SNOW  21  19  92 NE5       29.77S FOG     WCI  15
STATE COLLEGE  LGT SNOW  21  19  93 NE3       29.79S FOG
WILLIAMSPORT   LGT SNOW  24  19  81 W3        29.84S
SELINSGROVE    CLOUDY    24  21  88 N6        29.82S FOG
FT INDIANTOWN  MIX PCPN  25  19  80 NE9G17    29.78F
CAPITAL CITY   LGT SNOW  25  21  85 NW3       29.80S FOG
HARRISBURG     LGT SNOW  25  20  81 NE8G17    29.79S FOG
YORK           CLOUDY    23  19  85 N7        29.77S WCI  15
$$

PAZ038>040-043-044-047-048-054-055-060>062-067>071-270300-
EASTERN PENNSYLVANIA

CITY           SKY/WX    TMP DP  RH WIND       PRES   REMARKS
SCRANTON       CLOUDY    23  15  71 NE10      29.79F WCI  12
MOUNT POCONO   MIX PCPN  20  15  81 E20G26    29.71F WCI   4
ALLENTOWN      LGT SNOW  23  18  80 NE17G25   29.79F WCI   9
QUAKERTOWN*    NOT AVBL
READING        CLOUDY    24  17  74 NE13      29.78F WCI  12
LANCASTER      CLOUDY    22  17  81 NE10      29.76F WCI  11
COATESVILLE    MOCLDY    25  23  93 NE12G20   29.72S WCI  14
POTTSTOWN      LGT SNOW  22  19  89 N10       29.77F FOG     WCI  11
BLUE BELL      CLOUDY    28  25  86 NE9G16    29.74F
DOYLESTOWN     FLURRIES  25  21  85 NE16G31   29.75F WCI  12
WILLOW GROVE   NOT AVBL
NORTH PHILA    LGT SNOW  28  21  75 NE22G30   29.75F WCI  14
PHILADELPHIA   FLURRIES  28  22  78 NE20G32   29.73F WCI  15
$$



USA.gov is the U.S. government's official web portal to all federal, state and local government web resources and services.